XE1DM Weather Reports


time (UTC)temp
C
wind
direction
speed
KPH
gust
KPH
rain 1hr
cm
rain 24hr
cm
rain mn
cm
humidity
%
barometer
mb
20260509034537 17 87 3.2 14.5 0.00 0.20 0.20 56 1010.0
20260509033038 17 39 4.8 11.3 0.00 0.20 0.20 58 1010.2
20260509031538 16 44 9.7 17.7 0.00 0.20 0.20 59 1010.0
20260509030036 16 83 3.2 6.4 0.00 0.20 0.20 61 1010.0
20260509024537 16 89 1.6 8.0 0.00 0.20 0.20 62 1010.0
20260509023039 16 32 1.6 6.4 0.00 0.20 0.20 61 1009.9
20260509021537 17 18 6.4 11.3 0.00 0.20 0.20 60 1009.7
20260509020044 17 102 0.0 3.2 0.00 0.20 0.20 63 1009.9
20260509014533 17 77 3.2 9.7 0.00 0.20 0.20 59 1009.3
20260509013042 17 23 11.3 19.3 0.00 0.20 0.20 59 1008.6
20260509011536 17 62 11.3 24.1 0.00 0.20 0.20 61 1008.3
20260509010039 16 75 8.0 25.7 0.00 0.20 0.20 63 1008.2
20260509004534 16 58 14.5 22.5 0.00 0.20 0.20 65 1008.1
20260509003032 16 46 6.4 12.9 0.00 0.20 0.20 68 1008.2
20260509001532 16 10 3.2 6.4 0.00 0.20 0.20 77 1008.3
20260509000031 16 152 0.0 9.7 0.05 0.20 0.20 75 1007.7
20260508234531 16 152 3.2 8.0 0.10 0.20 0.20 73 1007.4
20260508233030 17 49 3.2 12.9 0.13 0.20 0.20 71 1006.4
20260508231530 15 170 8.0 27.4 0.20 0.20 0.20 71 1005.9
20260508230039 15 359 12.9 22.5 0.15 0.15 0.15 78 1007.9
20260508224528 15 110 4.8 12.9 0.10 0.10 0.10 80 1007.5
20260508223030 15 143 12.9 25.7 0.08 0.08 0.08 77 1007.2
20260508221525 18 158 4.8 30.6 0.00 0.00 0.00 56 1006.9
20260508220027 20 187 3.2 14.5 0.00 0.00 0.00 49 1006.2
20260508214528 20 166 4.8 30.6 0.00 0.00 0.00 51 1005.9
20260508213035 23 177 9.7 19.3 0.00 0.00 0.00 41 1006.1
20260508211534 24 300 11.3 20.9 0.00 0.00 0.00 40 1004.9
20260508210026 24 336 9.7 20.9 0.00 0.00 0.00 39 1004.6
20260508204522 25 271 14.5 24.1 0.00 0.00 0.00 41 1004.6
20260508203020 25 308 8.0 20.9 0.00 0.00 0.00 39 1005.1
20260508201516 25 244 12.9 24.1 0.00 0.00 0.00 40 1005.4
20260508200013 25 295 8.0 19.3 0.00 0.00 0.00 39 1005.8
20260508194524 24 274 9.7 22.5 0.00 0.00 0.00 40 1006.3
20260508193008 25 231 9.7 19.3 0.00 0.00 0.00 39 1006.3
20260508191505 24 278 12.9 24.1 0.00 0.00 0.00 40 1006.6
20260508190002 24 240 14.5 20.9 0.00 0.00 0.00 41 1007.0
20260508184607 23 345 9.7 19.3 0.00 0.00 0.00 41 1007.1
20260508183123 23 287 4.8 20.9 0.00 0.00 0.00 44 1007.5
20260508181604 23 277 6.4 19.3 0.00 0.00 0.00 43 1007.6
20260508180050 22 201 6.4 20.9 0.00 0.00 0.00 44 1007.8
20260508174551 22 268 11.3 24.1 0.00 0.00 0.00 47 1007.9
20260508173046 22 299 12.9 22.5 0.00 0.00 0.00 48 1008.0
20260508171544 22 280 11.3 17.7 0.00 0.00 0.00 49 1008.1
20260508170052 22 255 8.0 16.1 0.00 0.00 0.00 49 1008.3
20260508164546 22 231 6.4 17.7 0.00 0.00 0.00 52 1008.7
20260508163038 21 215 6.4 16.1 0.00 0.00 0.00 55 1009.0
20260508161535 21 168 6.4 12.9 0.00 0.00 0.00 54 1009.2
20260508160034 20 228 3.2 11.3 0.00 0.00 0.00 55 1009.4
20260508154549 20 243 4.8 11.3 0.00 0.00 0.00 54 1009.6
20260508153031 20 206 0.0 8.0 0.00 0.00 0.00 55 1009.7
20260508151533 20 319 3.2 9.7 0.00 0.00 0.00 55 1009.7
20260508150035 19 250 3.2 8.0 0.00 0.00 0.00 56 1009.8
20260508144527 19 149 1.6 4.8 0.00 0.00 0.00 55 1009.6
20260508143029 18 146 1.6 4.8 0.00 0.00 0.00 56 1009.6
20260508141532 19 125 0.0 6.4 0.00 0.00 0.00 55 1009.7
20260508140027 19 125 3.2 4.8 0.00 0.00 0.00 55 1009.7
20260508134523 18 89 0.0 4.8 0.00 0.00 0.00 57 1009.7
20260508133041 18 80 0.0 3.2 0.00 0.00 0.00 57 1009.7
20260508131517 17 75 0.0 4.8 0.00 0.00 0.00 61 1009.5
20260508130015 16 76 3.2 8.0 0.00 0.00 0.00 62 1009.6
20260508124512 16 79 3.2 9.7 0.00 0.00 0.00 62 1009.6
20260508123011 15 63 3.2 8.0 0.00 0.00 0.00 64 1009.4
20260508121508 15 71 3.2 8.0 0.00 0.00 0.00 65 1009.4
20260508120003 14 63 4.8 9.7 0.00 0.00 0.00 68 1009.3
20260508114502 14 54 0.0 3.2 0.00 0.00 0.00 70 1009.3
20260508113001 15 53 0.0 6.4 0.00 0.00 0.00 68 1009.3
20260508111501 14 53 1.6 3.2 0.00 0.00 0.00 70 1009.2
20260508110001 15 54 3.2 8.0 0.00 0.00 0.00 68 1008.8
20260508104600 14 50 1.6 4.8 0.00 0.00 0.00 69 1008.7
20260508103100 14 50 0.0 3.2 0.00 0.00 0.00 69 1008.7
20260508101559 14 50 1.6 4.8 0.00 0.00 0.00 69 1008.6
20260508100110 14 50 1.6 3.2 0.00 0.00 0.00 69 1008.7
20260508094606 14 51 3.2 9.7 0.00 0.00 0.00 70 1008.7
20260508093053 14 123 3.2 6.4 0.00 0.00 0.00 71 1008.9
20260508091602 14 92 3.2 6.4 0.00 0.00 0.00 72 1009.1
20260508090109 13 20 1.6 4.8 0.00 0.00 0.00 73 1009.4
20260508084548 13 16 0.0 3.2 0.00 0.00 0.00 74 1009.6
20260508083046 13 16 0.0 3.2 0.00 0.00 0.00 73 1009.7
20260508081601 13 16 0.0 3.2 0.00 0.00 0.00 73 1009.7
20260508080045 13 16 1.6 4.8 0.00 0.00 0.00 72 1009.7
20260508074546 13 16 1.6 4.8 0.00 0.00 0.00 70 1009.9
20260508073056 14 16 3.2 4.8 0.00 0.00 0.00 69 1009.6
20260508071538 14 16 0.0 1.6 0.00 0.00 0.00 69 1009.9
20260508070036 15 16 1.6 4.8 0.00 0.00 0.00 67 1010.1
20260508064536 15 16 3.2 6.4 0.00 0.00 0.00 69 1010.3
20260508063035 15 16 0.0 3.2 0.00 0.00 0.00 67 1010.4
20260508061537 15 16 0.0 4.8 0.00 0.00 0.00 67 1010.3
20260508060027 15 16 1.6 6.4 0.00 0.00 0.00 67 1010.7
20260508054533 15 17 1.6 8.0 0.00 0.00 0.00 65 1011.0
20260508053032 16 73 0.0 1.6 0.00 0.00 0.00 63 1011.1
20260508051526 16 84 0.0 4.8 0.00 0.00 0.00 63 1011.1
20260508050025 16 110 3.2 12.9 0.00 0.00 0.00 62 1011.1
20260508044525 17 297 0.0 11.3 0.00 0.00 0.00 62 1011.0
20260508043024 17 302 3.2 4.8 0.00 0.00 0.00 61 1011.0
20260508041525 17 213 0.0 4.8 0.00 0.00 0.00 61 1010.8
20260508040024 17 8 8.0 14.5 0.00 0.00 0.00 61 1010.3